カタログに戻る

DELTA 1 DEB

運用中SSO
NORAD 37658·DEBRIS·🇺🇸 United States

打ち上げ Mar 5, 1978 から Vandenberg Space Force Base

Loading…

次のパス (今後24時間)

TLE

最新Source: Space-Track

元期: Sep 13, 2026, 12:25 UTC

1 37658U 78026JV  26256.51738170 -.00000048  00000-0 -17527-5 0  9996
2 37658  99.1833 158.0689 0065661 170.8341   5.0168 13.99289130185075

AllMySatでDELTA 1 DEBをリアルタイム追跡

Download on the App Store